This is the latest recevied weather packets stored in our database for station/object KC1BRV. If no packets are shown the sender has not sent any weather packets the latest 10 day(s).
| Time | Temp. | Humidity | Pressure | Rain* | Wind** | Luminosity | Snow |
|---|---|---|---|---|---|---|---|
| 1777922295 | 20° C | 36% | 1010.3 hPa | 0 mm | - | 556 W/m² | - |
| 1777921993 | 20° C | 36% | 1010.2 hPa | 0 mm | - | 575 W/m² | - |
| 1777921689 | 19.44° C | 36% | 1010.2 hPa | 0 mm | - | 586 W/m² | - |
| 1777921384 | 19.44° C | 34% | 1010.2 hPa | 0 mm | - | 596 W/m² | - |
| 1777921081 | 20° C | 34% | 1010.2 hPa | 0 mm | - | 608 W/m² | - |
| 1777920778 | 20° C | 34% | 1010.3 hPa | 0 mm | - | 614 W/m² | - |
| 1777920474 | 20° C | 33% | 1010.4 hPa | 0 mm | - | 624 W/m² | - |
| 1777920170 | 20° C | 33% | 1010.6 hPa | 0 mm | - | 630 W/m² | - |
| 1777919866 | 20.56° C | 32% | 1010.3 hPa | 0 mm | - | 643 W/m² | - |
| 1777919563 | 20° C | 31% | 1010.4 hPa | 0 mm | - | 645 W/m² | - |
| 1777919261 | 20° C | 32% | 1010.6 hPa | 0 mm | - | 657 W/m² | - |
| 1777918958 | 20° C | 33% | 1010.6 hPa | 0 mm | - | 673 W/m² | - |
| 1777918656 | 20° C | 32% | 1010.7 hPa | 0 mm | - | 679 W/m² | - |
| 1777918352 | 20.56° C | 30% | 1010.6 hPa | 0 mm | - | 682 W/m² | - |
| 1777918052 | 20° C | 31% | 1010.7 hPa | 0 mm | - | 689 W/m² | - |
| 1777917750 | 20° C | 33% | 1010.8 hPa | 0 mm | - | 695 W/m² | - |
| 1777917447 | 20.56° C | 31% | 1010.8 hPa | 0 mm | - | 703 W/m² | - |
| 1777917144 | 20.56° C | 29% | 1010.6 hPa | 0 mm | - | 714 W/m² | - |
| 1777916842 | 20.56° C | 30% | 1011 hPa | 0 mm | - | 722 W/m² | - |
| 1777916540 | 20° C | 33% | 1010.8 hPa | 0 mm | - | 723 W/m² | - |
| 1777916236 | 20.56° C | 29% | 1010.9 hPa | 0 mm | - | 727 W/m² | - |
| 1777915933 | 20.56° C | 30% | 1010.9 hPa | 0 mm | - | 734 W/m² | - |
| 1777915629 | 20.56° C | 30% | 1011 hPa | 0 mm | - | 742 W/m² | - |
| 1777915326 | 20° C | 29% | 1011 hPa | 0 mm | - | 746 W/m² | - |
| 1777915022 | 20.56° C | 31% | 1011.1 hPa | 0 mm | - | 746 W/m² | - |
* Rain latest hour (hover to see other rain measurements)
** Current wind speed in m/s (hover to see current wind gust speed)